Stündliche Wetter Bolshie Hutora

Heute, 26 November, Donnerstag

Zeit Temperatur Niederschläge Wind Luftdruck Luftfeuchtigkeit
00:00 +1°C° 0 mm 2 m/S 746 mmHg 96%
01:00 0°C° 0 mm 3 m/S 746 mmHg 96%
02:00 0°C° 0 mm 3 m/S 746 mmHg 96%
03:00 +1°C° 0.2 mm 3 m/S 746 mmHg 96%
04:00 +1°C° 0.2 mm 3 m/S 746 mmHg 97%
05:00 0°C° 0.2 mm 4 m/S 745 mmHg 97%
06:00 +2°C° 0.3 mm 3 m/S 745 mmHg 97%
07:00 +2°C° 0.3 mm 3 m/S 745 mmHg 98%
08:00 +3°C° 0.3 mm 3 m/S 745 mmHg 98%
09:00 +3°C° 0 mm 3 m/S 745 mmHg 97%
10:00 +4°C° 0 mm 4 m/S 745 mmHg 96%
11:00 +4°C° 0 mm 4 m/S 744 mmHg 95%
12:00 +4°C° 0 mm 4 m/S 744 mmHg 93%
13:00 +4°C° 0 mm 4 m/S 744 mmHg 92%
14:00 +4°C° 0 mm 4 m/S 744 mmHg 90%
15:00 +3°C° 0 mm 4 m/S 744 mmHg 90%
16:00 +3°C° 0 mm 4 m/S 743 mmHg 90%
17:00 +1°C° 0 mm 4 m/S 743 mmHg 89%
18:00 0°C° 0 mm 4 m/S 743 mmHg 88%
19:00 -1°C° 0 mm 4 m/S 742 mmHg 87%
20:00 -1°C° 0 mm 4 m/S 742 mmHg 86%
21:00 -2°C° 0 mm 4 m/S 742 mmHg 87%
22:00 -2°C° 0 mm 4 m/S 742 mmHg 88%
23:00 -2°C° 0 mm 5 m/S 741 mmHg 89%

Morgen, 27 November, Freitag

Zeit Temperatur Niederschläge Wind Luftdruck Luftfeuchtigkeit
00:00 -2°C° 0 mm 4 m/S 741 mmHg 89%
01:00 -2°C° 0 mm 4 m/S 741 mmHg 89%
02:00 -3°C° 0 mm 4 m/S 741 mmHg 90%
03:00 -3°C° 0 mm 4 m/S 740 mmHg 90%
04:00 -2°C° 0 mm 5 m/S 740 mmHg 89%
05:00 -2°C° 0 mm 5 m/S 739 mmHg 89%
06:00 -2°C° 0 mm 4 m/S 739 mmHg 89%
07:00 -2°C° 0 mm 4 m/S 739 mmHg 89%
08:00 -2°C° 0 mm 4 m/S 739 mmHg 89%
09:00 -1°C° 0 mm 4 m/S 739 mmHg 90%
10:00 -1°C° 0 mm 5 m/S 738 mmHg 91%
11:00 -1°C° 0 mm 5 m/S 738 mmHg 92%
12:00 0°C° 0.1 mm 5 m/S 738 mmHg 92%
13:00 0°C° 0.1 mm 5 m/S 738 mmHg 91%
14:00 +1°C° 0.1 mm 5 m/S 738 mmHg 91%
15:00 0°C° 0.1 mm 5 m/S 738 mmHg 93%
16:00 0°C° 0.1 mm 4 m/S 738 mmHg 95%
17:00 0°C° 0.1 mm 4 m/S 738 mmHg 97%
18:00 0°C° 0.2 mm 4 m/S 738 mmHg 97%
19:00 0°C° 0.2 mm 4 m/S 738 mmHg 97%
20:00 0°C° 0.2 mm 4 m/S 738 mmHg 97%
21:00 0°C° 0.1 mm 4 m/S 739 mmHg 94%
22:00 -1°C° 0.1 mm 4 m/S 739 mmHg 91%
23:00 -2°C° 0.1 mm 4 m/S 740 mmHg 88%

übermorgen, 28 November, Samstag

Zeit Temperatur Niederschläge Wind Luftdruck Luftfeuchtigkeit
00:00 -1°C° 0 mm 3 m/S 740 mmHg 90%
01:00 -1°C° 0 mm 3 m/S 741 mmHg 92%
02:00 -2°C° 0 mm 2 m/S 741 mmHg 95%
03:00 -2°C° 0.1 mm 2 m/S 741 mmHg 95%
04:00 -2°C° 0.1 mm 2 m/S 742 mmHg 95%
05:00 -2°C° 0.1 mm 2 m/S 742 mmHg 95%
06:00 -2°C° 0 mm 2 m/S 742 mmHg 95%
07:00 0°C° 0 mm 1 m/S 743 mmHg 94%
08:00 -1°C° 0 mm 1 m/S 743 mmHg 93%
09:00 0°C° 0 mm 1 m/S 744 mmHg 89%
10:00 +1°C° 0 mm 1 m/S 744 mmHg 85%
11:00 +1°C° 0 mm 1 m/S 745 mmHg 80%
12:00 +1°C° 0 mm 1 m/S 745 mmHg 78%
13:00 +1°C° 0 mm 1 m/S 745 mmHg 76%
14:00 +1°C° 0 mm 1 m/S 746 mmHg 74%
15:00 +1°C° 0 mm 1 m/S 746 mmHg 75%
16:00 +1°C° 0 mm 1 m/S 746 mmHg 76%
17:00 0°C° 0 mm 0 m/S 747 mmHg 77%
18:00 +1°C° 0 mm 1 m/S 747 mmHg 78%
19:00 +1°C° 0 mm 1 m/S 747 mmHg 78%
20:00 +1°C° 0 mm 1 m/S 748 mmHg 78%
21:00 +1°C° 0 mm 1 m/S 748 mmHg 78%
22:00 +1°C° 0 mm 1 m/S 748 mmHg 79%
23:00 +1°C° 0 mm 1 m/S 749 mmHg 79%

29 November, Sonntag

Zeit Temperatur Niederschläge Wind Luftdruck Luftfeuchtigkeit
00:00 +1°C° 0 mm 1 m/S 749 mmHg 79%
01:00 -1°C° 0 mm 2 m/S 749 mmHg 79%
02:00 -1°C° 0 mm 2 m/S 749 mmHg 79%
03:00 -2°C° 0 mm 2 m/S 749 mmHg 80%
04:00 -2°C° 0 mm 2 m/S 749 mmHg 82%
05:00 -2°C° 0 mm 3 m/S 748 mmHg 84%
06:00 -4°C° 0 mm 3 m/S 748 mmHg 86%
07:00 -4°C° 0 mm 3 m/S 748 mmHg 87%
08:00 -4°C° 0 mm 4 m/S 748 mmHg 89%
09:00 -4°C° 0.1 mm 4 m/S 748 mmHg 89%
10:00 -4°C° 0.1 mm 5 m/S 748 mmHg 89%
11:00 -4°C° 0.1 mm 6 m/S 747 mmHg 89%
12:00 -3°C° 0.3 mm 6 m/S 747 mmHg 91%
13:00 -2°C° 0.3 mm 5 m/S 746 mmHg 93%
14:00 -2°C° 0.3 mm 5 m/S 746 mmHg 95%
15:00 -2°C° 0.4 mm 6 m/S 745 mmHg 96%
16:00 -1°C° 0.4 mm 6 m/S 745 mmHg 96%
17:00 -1°C° 0.4 mm 6 m/S 745 mmHg 97%
18:00 -1°C° 0.7 mm 6 m/S 744 mmHg 96%
19:00 -1°C° 0.7 mm 6 m/S 744 mmHg 96%
20:00 -1°C° 0.7 mm 6 m/S 744 mmHg 96%
21:00 +1°C° 0.2 mm 6 m/S 744 mmHg 96%
22:00 +1°C° 0.2 mm 6 m/S 744 mmHg 95%
23:00 +1°C° 0.2 mm 5 m/S 744 mmHg 94%

30 November, Montag

Zeit Temperatur Niederschläge Wind Luftdruck Luftfeuchtigkeit
00:00 +1°C° 0.1 mm 5 m/S 744 mmHg 94%
01:00 +1°C° 0.1 mm 5 m/S 744 mmHg 94%
02:00 +1°C° 0.1 mm 5 m/S 744 mmHg 94%
03:00 0°C° 0 mm 5 m/S 744 mmHg 92%
04:00 -1°C° 0 mm 5 m/S 744 mmHg 91%
05:00 -2°C° 0 mm 5 m/S 744 mmHg 90%
06:00 -2°C° 0 mm 5 m/S 745 mmHg 89%
07:00 -2°C° 0 mm 5 m/S 745 mmHg 88%
08:00 -4°C° 0 mm 5 m/S 745 mmHg 87%
09:00 -4°C° 0 mm 5 m/S 746 mmHg 85%
10:00 -4°C° 0 mm 5 m/S 746 mmHg 84%
11:00 -2°C° 0 mm 5 m/S 746 mmHg 83%
12:00 -3°C° 0 mm 6 m/S 747 mmHg 83%
13:00 -3°C° 0 mm 6 m/S 747 mmHg 84%
14:00 -3°C° 0 mm 6 m/S 747 mmHg 84%
15:00 -3°C° 0 mm 6 m/S 747 mmHg 86%
16:00 -2°C° 0 mm 5 m/S 747 mmHg 88%
17:00 -4°C° 0 mm 5 m/S 748 mmHg 91%
18:00 -2°C° 0 mm 5 m/S 748 mmHg 92%
19:00 -2°C° 0 mm 5 m/S 748 mmHg 92%
20:00 -2°C° 0 mm 5 m/S 749 mmHg 93%
21:00 -2°C° 0 mm 5 m/S 749 mmHg 93%
22:00 -2°C° 0 mm 4 m/S 749 mmHg 92%
23:00 -2°C° 0 mm 4 m/S 750 mmHg 91%

1 Dezember, Dienstag

Zeit Temperatur Niederschläge Wind Luftdruck Luftfeuchtigkeit
00:00 -1°C° 0 mm 3 m/S 750 mmHg 91%
01:00 -1°C° 0 mm 3 m/S 750 mmHg 91%
02:00 -1°C° 0 mm 3 m/S 750 mmHg 91%
03:00 -1°C° 0 mm 3 m/S 751 mmHg 91%
04:00 -1°C° 0 mm 3 m/S 751 mmHg 91%
05:00 -2°C° 0 mm 3 m/S 751 mmHg 91%
06:00 -2°C° 0 mm 3 m/S 751 mmHg 91%
07:00 -2°C° 0 mm 2 m/S 751 mmHg 90%
08:00 -2°C° 0 mm 2 m/S 751 mmHg 90%
09:00 -2°C° 0 mm 2 m/S 752 mmHg 88%
10:00 -2°C° 0 mm 2 m/S 752 mmHg 87%
11:00 -2°C° 0 mm 3 m/S 752 mmHg 85%
12:00 -2°C° 0 mm 3 m/S 752 mmHg 84%
13:00 -2°C° 0 mm 3 m/S 752 mmHg 83%
14:00 -2°C° 0 mm 3 m/S 751 mmHg 82%
15:00 -2°C° 0 mm 3 m/S 751 mmHg 83%
16:00 -4°C° 0 mm 3 m/S 751 mmHg 83%
17:00 -4°C° 0 mm 3 m/S 751 mmHg 84%
18:00 -4°C° 0 mm 3 m/S 751 mmHg 84%
19:00 -4°C° 0 mm 3 m/S 751 mmHg 84%
20:00 -4°C° 0 mm 3 m/S 751 mmHg 84%
21:00 -4°C° 0 mm 3 m/S 751 mmHg 85%
22:00 -5°C° 0 mm 3 m/S 751 mmHg 87%
23:00 -5°C° 0 mm 3 m/S 751 mmHg 88%
Mehr zeigen

Wir brauchen deine Erlaubnis

Meteoprog und unser Service Anbieter werden persönliche Daten aufbewahren, so wie Cookies, Geräte Bezeichnung oder ähnliche Technologien von deinem Gerät und Prozess, so wie Persönliche Daten Inhalte und Werbungen, genauso wie social Media und den Verkehr zu analysieren.

  • Aufbewahrung und/oder Zugang zu deiner Geräte Informationen.

    Cookies, Geräte Bezeichnung oder andere Informationen, können aufbewahrt oder Zugang zu deinem Gerät erhalten, für den Grund, der oben angegeben wird.

  • Personalisierte Werbung und Inhalte, Messungen, Einblick in das Publikum und Produkt Entwicklung.

    Werbungen und Inhalte können personalisiert werden, basierend auf ein Profil. Mehr Daten können besser personalisierte Werbungen und Inhalte hinzufügen. Werbung und Inhalte können gezeigt und gemessen werden. Einblicke über das Publikum, welche die Werbung gesehen haben und den Inhalt, können abgeleitet werden. So wie Daten können genutzt werden, um es zu verbessern oder die Benutzer Erfahrung zu verbessern das System und die Software.

Wenn du “Ich stimme zu” klickst, erlaubst du uns, die Cookies zu benutzen die Geräte Bezeichnung, den Web oder ähnliche Technologien zu benutzen. Deine Settings, können in deinem Gerät bei deinem Browser geändert werden.

Für den bestimmten Zweck, berechtigten Interessen beruhen darauf, mehr als auf den Inhalt. Du kannst mehr darüber in unseren Privaten und Cookie Politik lesen.